Regional Weather Roundup
Issued by NWS Charleston, SC

Current Version | Previous Version | Graphics & Text | Print | Product List | Glossary On
Versions: 1 2 3 4 5 6 7 8 9 10 11 12 13 14 15 16 17 18 19 20 21 22 23 24 25 26 27 28 29 30 31 32 33 34 35 36 37 38 39 40 41 42 43 44 45 46 47 48 49 50
000
ASUS42 KCHS 011528
RWRCHS

REGIONAL WEATHER ROUNDUP
NATIONAL WEATHER SERVICE CHARLESTON SC
1100 AM EDT SUN MAY 01 2016

NOTE: "FAIR" INDICATES FEW OR NO CLOUDS BELOW 12,000 FEET WITH NO
SIGNIFICANT WEATHER AND/OR OBSTRUCTIONS TO VISIBILITY.

NOT ALL STATIONS ARE QUALITY CONTROLLED. USE DATA WITH CAUTION...
ESPECIALLY DEWPOINT OBSERVATIONS.

SCZ027-030-031-034>040-042>050-011600-
...SOUTHEAST SOUTH CAROLINA...

CITY           SKY/WX    TMP DP  RH WIND       PRES   REMARKS
N CHARLESTON   PTSUNNY   80  67  64 S15       30.09R
WATERFRONT PRK   N/A     76  70  81 S12       30.07R
MOUNT PLEASANT FAIR      79  70  73 S14G20    30.10S
JOHNS ISLAND   FAIR      81  70  69 SE13G23   30.10R
PINOPOLIS        N/A     81  70  69 S5        30.01R
MONCKS CORNER  PTSUNNY   77  64  65 S9G18     30.09R
SUMMERVILLE    PTSUNNY   79  70  73 S5        30.10R
BEAUFORT MCAS  PTSUNNY   81  70  69 S9G21     30.08S
BEAUFORT ARPT  FAIR      79  70  73 S10G16    30.08S
HILTON HEAD IS PTSUNNY   79  72  78 S9        30.10R
WALTERBORO     CLOUDY    81  70  69 S9        30.09S
ALLENDALE      PTSUNNY   82  68  61 S9        30.07R

...SOUTHERN MIDLANDS AND PEE DEE...

CITY           SKY/WX    TMP DP  RH WIND       PRES   REMARKS
GEORGETOWN     CLOUDY    77  66  69 S10G21    30.11S
KINGSTREE      CLOUDY    73  68  83 SE6       30.09S
ORANGEBURG     PTSUNNY   80  69  69 S14G20    30.07S
BARNWELL       PTSUNNY   82  72  69 S9        30.07S
AIKEN          PTSUNNY   77  68  73 S9        30.10R
MANNING        NOT AVBL
COLUMBIA       PTSUNNY   79  71  76 S10G20    30.05S
SUMTER         CLOUDY    75  68  78 S9        30.06R
FLORENCE       LGT RAIN  72  67  84 E3        30.10S
MYRTLE BEACH   PTSUNNY   79  63  57 S12       30.13R
N MYRTLE BEACH CLOUDY    75  66  73 S8        30.12R

$$

GAZ063-065-086>088-099>101-113>116-118-119-134>141-150-011600-
...SOUTHEAST GEORGIA...

CITY           SKY/WX    TMP DP  RH WIND       PRES   REMARKS
SAVANNAH ARPT  PTSUNNY   81  66  60 S10       30.08S
HUNTER AAF     CLOUDY    79  73  80 S8        30.06S
FORT STEWART   PTSUNNY   78  69  72 VRB1      30.06R
STATESBORO     PTSUNNY   84  71  65 SW13      30.08R
SYLVANIA       PTSUNNY   81  70  69 S7        30.09R
CLAXTON        FAIR      82  71  69 SE9       30.08R

...CSRA...CENTRAL AND FAR SOUTHEAST GEORGIA...

CITY           SKY/WX    TMP DP  RH WIND       PRES   REMARKS
THOMSON        PTSUNNY   82  72  71 S6        30.10S
AUGUSTA-BUSH   PTSUNNY   79  69  71 SW8       30.05R
AUGUSTA-DANIEL PTSUNNY   81  67  62 S8        30.07R
SWAINSBORO     CLOUDY    79  70  73 S7        30.08S
VIDALIA        CLOUDY    81  68  65 S6        30.07S
EASTMAN        PTSUNNY   80  76  90 SW3       30.09S
HAZLEHURST     FAIR      82  70  68 S7        30.06S
ALMA           PTSUNNY   80  68  66 S9        30.08R
WAYCROSS       PTSUNNY   80  69  69 S8        30.07S
JESUP          CLOUDY    81  72  74 S8        30.09R
BAXLEY         PTSUNNY   81  68  65 SW7       30.07S
BRUNSWICK      PTSUNNY   86  70  58 S9        30.09R HX  90
SAINT SIMONS   MOSUNNY   79  72  79 S9        30.08R

$$

SCZ027-028-034-036>038-045-046-048>050-GAZ119-141-011600-
...LAKE AND SUPPLEMENTAL COASTAL OBSERVATIONS...

STATION/POSITION TIME  TEMP    WIND        PRES    WAVE   SWELL
                       AIR SEA DIR/SP/G            HT/PER HT/PER/DIR
                 (UTC) (F)     (DEG/KT/KT) (MB)    (FT/S) (FT/S/D)
WINYAH BAY       1400   75     170/ 11     1018.0S
LAKE MURRAY      1400   72     170/ 10/ 13 1016.9S
ACE BASIN NERRS  1400   77     160/  1     1019.0R
FORT PULASKI     1500   78 73  190/  6/ 10 1019.2R
SAPELO ISLAND    1500   81     180/ 13     1018.0S

$$

ANZ835-935-AMZ111-154-330-350-352-354-370-450-454-472-011600-
...C-MAN AND BUOY OBSERVATIONS...

STATION/POSITION TIME  TEMP    WIND        PRES    WAVE   SWELL
                       AIR SEA DIR/SP/G            HT/PER HT/PER/DIR
                 (UTC) (F)     (DEG/KT/KT) (MB)    (FT/S) (FT/S/D)
BUOY 41004       1450   75 72  170/ 10/ 12 1019.2R   5/ 6   3/ 6
BUOY 41008       NOT AVBL
FOLLY BEACH CMAN 1500   74     160/ 10/ 11 1019.3R
CAPERS NEARSHORE 1408   73 71  170/  8/ 10 1018.9R
FRIPP NEARSHORE  1508   74 74  170/  6/  8 1018.6R


STATION/POSITION TIME  TEMP    WIND        PRES    WAVE   SWELL
                       AIR SEA DIR/SP/G            HT/PER HT/PER/DIR
                 (UTC) (F)     (DEG/KT/KT) (MB)    (FT/S) (FT/S/D)
5E ST. MARYS GA  1421      73                N/A     2/11
FRYING PAN BUOY  1500          180/  8/ 10 1020.1R
BUOY 41025       1450   73 74  180/ 12/ 14 1020.3S   5/10   5/ 70/10
CAPE LOOKOUT NC  1500   69     160/  8/  8 1020.1R
BUOY 41002       1450   72     120/ 14/ 17 1020.6F   4/11   3/360/11
BUOY 41010       1420   77 77  140/ 14/ 16 1018.6R
ST AUGUSTINE FL  1500   74 72  140/ 12/ 14 1019.1S


$$



USA.gov is the U.S. government's official web portal to all federal, state and local government web resources and services.